User: anonymous   Login
Location: Dover
(39.1580°N, 75.5250°W)
Time: 10:21:17
(UTC-05:00)
Language:

Cosmos 1437 Rocket - Orbit

View from above orbital plane
View from above orbital plane
View from above satellite
View from above satellite

Ground track
Ground track

The orbit data is extracted from the following two-line orbital elements,

1 13771U 83003B   16343.25928486  .00000165  00000-0  86200-5 0  9997
2 13771  81.1404 223.0912 0042306 280.7518  78.8945 15.09538986844982
Epoch (UTC): 08 December 2016 06:13:22
Eccentricity: 0.0042306
inclination: 81.1404°
perigee height: 508 km
apogee height: 567 km
right ascension of ascending node: 223.0912°
argument of perigee: 280.7518°
revolutions per day: 15.09538986
mean anomaly at epoch: 78.8945°
orbit number at epoch: 84498

The dashed part of the orbit path shows where the satellite is in the earth's shadow,  

DLR